Regional Weather Roundup
Issued by NWS

Home | Current Version | Previous Version | Graphics & Text | Print | Product List | Glossary On
Versions: 1 2 3 4 5 6 7 8 9 10 11 12 13 14 15 16 17 18 19 20 21 22 23 24 25 26 27 28 29 30 31 32 33 34 35 36 37 38 39 40 41 42 43 44 45 46 47 48 49 50
000
ASUS45 KABQ 222110
RWRNM
WEATHER ROUNDUP FOR NEW MEXICO
NATIONAL WEATHER SERVICE ALBUQUERQUE NM
200 PM MST SAT NOV 22 2014

NOTE: "FAIR" MEANS FEW OR NO CLOUDS BELOW 12,000 FEET AGL WITH NO
       SIGNIFICANT WEATHER OR OBSTRUCTIONS TO VISION.

      THIS PRODUCT IS RELEASED AS TWO VERSIONS.  ONE VERSION NEAR
      THE TOP OF THE HOUR CONTAINING PRELIMINARY DATA FROM ALBUQUERQUE
      AND OTHER STATIONS.  A FINAL VERSION WITH ADDITIONAL DATA IS
      ISSUED ABOUT 10 MINUTES AFTER THE HOUR.

NMZ501-503-504-510>518-222200-
NORTHWEST PLATEAU/NORTHCENTRAL MOUNTAINS

CITY           SKY/WX    TMP DP  RH WIND       PRES   REMARKS
FARMINGTON     SUNNY     50  20  30 SW6       29.95F
LOS ALAMOS     SUNNY     47  20  34 E6        29.98F
SANTA FE       SUNNY     54  18  24 W9G18     29.94F
TAOS           SUNNY     48  21  34 SW15      29.95F
ANGEL FIRE     FAIR      39  19  43 W16G24    29.95F WCI  31

$$
NMZ402-403-502-505>509-222200-
WESTCENTRAL MOUNTAINS/SOUTHWEST MOUNTAINS

CITY           SKY/WX    TMP DP  RH WIND       PRES   REMARKS
GALLUP         MOSUNNY   54  17  23 SW15G23   30.01F
GRANTS         SUNNY     55   9  15 NW12G20   30.01F
SILVER CITY    SUNNY     59  18  20 NW17G30   30.04F

$$
NMZ407-409-411-412-222200-
SOUTHERN DESERTS

CITY           SKY/WX    TMP DP  RH WIND       PRES   REMARKS
LORDSBURG      FAIR      63  23  22 W10G17    30.03F
DEMING         SUNNY     64  27  24 W17G26    29.99F
LAS CRUCES     SUNNY     64  28  25 W13G22    29.99F
HOLLOMAN AFB   SUNNY     64  23  21 VRB2      29.93F
ALAMOGORDO     SUNNY     64  21  19 NW12      29.95F
T OR C         SUNNY     62  20  19 VRB3      29.96F

$$
NMZ519>523-222200-
CENTRAL VALLEYS/CENTRAL HIGHLANDS

CITY           SKY/WX    TMP DP  RH WIND       PRES   REMARKS
ALBUQUERQUE    MOSUNNY   56  19  23 SW3       29.96F
DOUBLE EAGLE   MOSUNNY   55  21  26 W5        29.99F
MORIARTY ARPT  FAIR      55  19  25 W18G25    29.95F
CLINES CORNERS SUNNY     51  15  23 NW30G40   29.90F
BELEN          FAIR      57  20  23 SE3       29.97F
SOCORRO        FAIR      60  21  21 SE7       29.96F

$$
NMZ524>526-539-540-222200-
SOUTHCENTRAL MOUNTAINS

CITY           SKY/WX    TMP DP  RH WIND       PRES   REMARKS
RUIDOSO        SUNNY     54  18  24 NW18G26   29.98F

$$
NMZ527>531-222200-
NORTHEAST HIGHLANDS/NORTHEAST PLAINS

CITY           SKY/WX    TMP DP  RH WIND       PRES   REMARKS
LAS VEGAS      SUNNY     58   8  13 NW23G30   29.82F
RATON          SUNNY     60  16  18 SW22      29.72F
CLAYTON        SUNNY     67  10  11 SW18G28   29.69F

$$
NMZ532>537-222200-
EASTCENTRAL PLAINS

CITY           SKY/WX    TMP DP  RH WIND       PRES   REMARKS
TUCUMCARI      SUNNY     70  11  10 W26G37    29.73F
CANNON AFB     SUNNY     66  21  18 W18G29    29.84F
CLOVIS AIRPORT SUNNY     66  21  18 W21G26    29.80F

$$
NMZ028-029-538-222200-
SOUTHEAST PLAINS

CITY           SKY/WX    TMP DP  RH WIND       PRES   REMARKS
ROSWELL        SUNNY     71  27  19 S8        29.83F
CARLSBAD       SUNNY     73  30  20 W14G23    29.82F
HOBBS          SUNNY     68  32  26 W12       29.83F


$$


USA.gov is the U.S. government's official web portal to all federal, state and local government web resources and services.